AE5PL Weather Reports


time (UTC)temp
C
wind
direction
speed
KPH
gust
KPH
rain 1hr
cm
rain 24hr
cm
rain mn
cm
humidity
%
barometer
mb
20260906224212 35 180 11.3 17.7 0.00 0.00 0.00 43 1009.8
20260906223712 36 135 12.9 22.5 0.00 0.00 0.00 43 1010.0
20260906223212 36 157 11.3 22.5 0.00 0.00 0.00 43 1009.9
20260906222712 36 157 11.3 22.5 0.00 0.00 0.00 43 1009.9
20260906222212 36 157 14.5 22.5 0.00 0.00 0.00 42 1009.9
20260906221712 36 157 1.6 9.7 0.00 0.00 0.00 42 1009.9
20260906221212 36 180 8.0 14.5 0.00 0.00 0.00 43 1009.9
20260906220712 36 202 6.4 17.7 0.00 0.00 0.00 43 1009.9
20260906220212 36 180 9.7 16.1 0.00 0.00 0.00 42 1009.9
20260906215712 36 157 9.7 20.9 0.00 0.00 0.00 43 1009.9
20260906215212 36 157 12.9 20.9 0.00 0.00 0.00 43 1009.8
20260906214712 36 157 12.9 24.1 0.00 0.00 0.00 43 1009.9
20260906214212 36 157 16.1 24.1 0.00 0.00 0.00 43 1009.8
20260906213712 36 180 11.3 20.9 0.00 0.00 0.00 43 1009.8
20260906213212 36 180 6.4 22.5 0.00 0.00 0.00 43 1009.9
20260906212712 36 180 11.3 22.5 0.00 0.00 0.00 44 1010.0
20260906212212 36 157 11.3 22.5 0.00 0.00 0.00 43 1010.1
20260906211712 36 180 8.0 20.9 0.00 0.00 0.00 43 1010.1
20260906211212 36 225 8.0 27.4 0.00 0.00 0.00 44 1010.2
20260906210712 36 135 12.9 27.4 0.00 0.00 0.00 43 1010.3
20260906210212 36 157 11.3 22.5 0.00 0.00 0.00 44 1010.4
20260906205712 36 157 12.9 22.5 0.00 0.00 0.00 44 1010.6
20260906205212 36 135 14.5 25.7 0.00 0.00 0.00 43 1010.5
20260906204712 36 180 6.4 19.3 0.00 0.00 0.00 44 1010.6
20260906204212 36 135 11.3 22.5 0.00 0.00 0.00 44 1010.7
20260906203712 36 157 14.5 27.4 0.00 0.00 0.00 44 1010.7
20260906203212 36 180 14.5 27.4 0.00 0.00 0.00 44 1010.8
20260906202712 36 157 12.9 20.9 0.00 0.00 0.00 44 1010.8
20260906202212 36 157 9.7 19.3 0.00 0.00 0.00 44 1010.9
20260906201712 36 180 19.3 24.1 0.00 0.00 0.00 44 1011.0
20260906201212 36 157 14.5 27.4 0.00 0.00 0.00 44 1011.1
20260906200712 36 157 9.7 19.3 0.00 0.00 0.00 43 1011.2
20260906200212 36 180 14.5 20.9 0.00 0.00 0.00 44 1011.2
20260906195712 36 135 12.9 19.3 0.00 0.00 0.00 43 1011.2
20260906195212 36 157 11.3 20.9 0.00 0.00 0.00 43 1011.2
20260906194712 36 180 11.3 20.9 0.00 0.00 0.00 43 1011.3
20260906194212 36 180 14.5 22.5 0.00 0.00 0.00 43 1011.3
20260906193712 36 112 12.9 19.3 0.00 0.00 0.00 42 1011.4
20260906193212 36 135 12.9 20.9 0.00 0.00 0.00 43 1011.4
20260906192712 36 157 9.7 24.1 0.00 0.00 0.00 44 1011.5
20260906192213 35 157 16.1 32.2 0.00 0.00 0.00 44 1011.6
20260906191712 35 180 9.7 20.9 0.00 0.00 0.00 44 1011.7
20260906191212 35 135 11.3 20.9 0.00 0.00 0.00 45 1011.7
20260906190712 35 135 8.0 16.1 0.00 0.00 0.00 47 1011.7
20260906190212 35 135 8.0 17.7 0.00 0.00 0.00 47 1011.9
20260906185712 35 157 14.5 25.7 0.00 0.00 0.00 47 1012.0
20260906185212 35 135 11.3 24.1 0.00 0.00 0.00 47 1011.9
20260906184712 35 157 12.9 22.5 0.00 0.00 0.00 48 1012.0
20260906184212 35 135 8.0 19.3 0.00 0.00 0.00 47 1012.0
20260906183712 35 157 12.9 27.4 0.00 0.00 0.00 47 1012.0
20260906183212 35 157 12.9 24.1 0.00 0.00 0.00 48 1012.0
20260906182712 35 112 11.3 19.3 0.00 0.00 0.00 48 1012.1
20260906182212 35 157 11.3 19.3 0.00 0.00 0.00 48 1012.2
20260906181712 35 135 8.0 16.1 0.00 0.00 0.00 48 1012.4
20260906181212 35 112 12.9 22.5 0.00 0.00 0.00 48 1012.5
20260906180712 35 157 11.3 19.3 0.00 0.00 0.00 48 1012.5
20260906180212 35 112 11.3 20.9 0.00 0.00 0.00 48 1012.5
20260906175712 35 180 12.9 22.5 0.00 0.00 0.00 49 1012.6
20260906175212 35 135 4.8 16.1 0.00 0.00 0.00 49 1012.7
20260906174712 35 157 6.4 24.1 0.00 0.00 0.00 50 1012.9
20260906174212 34 157 11.3 24.1 0.00 0.00 0.00 50 1012.9
20260906173712 34 135 8.0 12.9 0.00 0.00 0.00 51 1013.0
20260906173212 34 112 3.2 16.1 0.00 0.00 0.00 51 1012.9
20260906172712 34 135 9.7 22.5 0.00 0.00 0.00 52 1013.1
20260906172212 33 157 8.0 20.9 0.00 0.00 0.00 52 1013.1
20260906171712 33 157 8.0 20.9 0.00 0.00 0.00 52 1013.1
20260906171212 34 135 9.7 19.3 0.00 0.00 0.00 51 1013.2
20260906170712 34 225 3.2 19.3 0.00 0.00 0.00 53 1013.3
20260906170212 33 157 9.7 20.9 0.00 0.00 0.00 53 1013.3
20260906165712 33 180 4.8 12.9 0.00 0.00 0.00 54 1013.4
20260906165212 33 135 9.7 16.1 0.00 0.00 0.00 53 1013.5
20260906164712 33 112 8.0 17.7 0.00 0.00 0.00 53 1013.4
20260906164212 33 135 4.8 16.1 0.00 0.00 0.00 53 1013.4
20260906163712 33 157 4.8 11.3 0.00 0.00 0.00 56 1013.4
20260906163212 32 90 9.7 14.5 0.00 0.00 0.00 57 1013.3
20260906162712 32 90 11.3 16.1 0.00 0.00 0.00 57 1013.3
20260906162212 32 112 11.3 17.7 0.00 0.00 0.00 57 1013.3
20260906161712 32 135 8.0 19.3 0.00 0.00 0.00 56 1013.3
20260906161212 32 135 11.3 19.3 0.00 0.00 0.00 56 1013.2
20260906160712 32 90 8.0 11.3 0.00 0.00 0.00 56 1013.2
20260906160212 32 90 9.7 17.7 0.00 0.00 0.00 56 1013.3
20260906155712 32 157 1.6 8.0 0.00 0.00 0.00 60 1013.3
20260906155212 32 135 8.0 16.1 0.00 0.00 0.00 59 1013.3
20260906154712 32 135 8.0 16.1 0.00 0.00 0.00 57 1013.3
20260906154212 32 90 4.8 11.3 0.00 0.00 0.00 58 1013.2
20260906153712 32 157 4.8 11.3 0.00 0.00 0.00 60 1013.2
20260906153212 32 157 4.8 9.7 0.00 0.00 0.00 63 1013.2
20260906152712 31 180 4.8 9.7 0.00 0.00 0.00 63 1013.1
20260906152212 31 157 3.2 9.7 0.00 0.00 0.00 63 1013.1
20260906151712 31 135 4.8 9.7 0.00 0.00 0.00 66 1013.2
20260906151212 31 157 3.2 8.0 0.00 0.00 0.00 68 1013.1
20260906150712 31 157 3.2 6.4 0.00 0.00 0.00 67 1013.1
20260906150212 31 135 3.2 4.8 0.00 0.00 0.00 70 1013.2
20260906145712 30 135 3.2 4.8 0.00 0.00 0.00 70 1013.2
20260906145212 30 112 1.6 6.4 0.00 0.00 0.00 71 1013.1
20260906144712 30 135 4.8 6.4 0.00 0.00 0.00 73 1013.1
20260906144212 30 157 1.6 6.4 0.00 0.00 0.00 74 1013.1
20260906143712 30 112 3.2 6.4 0.00 0.00 0.00 74 1013.2
20260906143212 29 157 1.6 6.4 0.00 0.00 0.00 76 1013.3
20260906142712 28 90 3.2 4.8 0.00 0.00 0.00 77 1013.3
20260906142212 28 90 1.6 4.8 0.00 0.00 0.00 78 1013.3
20260906141712 28 112 1.6 4.8 0.00 0.00 0.00 80 1013.3
20260906141212 28 90 3.2 3.2 0.00 0.00 0.00 81 1013.3
20260906140712 27 112 3.2 4.8 0.00 0.00 0.00 83 1013.2
20260906140212 27 135 3.2 4.8 0.00 0.00 0.00 84 1013.3
20260906135712 27 135 3.2 4.8 0.00 0.00 0.00 85 1013.2
20260906135454 27 90 3.2 4.8 0.00 0.00 0.00 86 1013.2
20260906135212 27 90 3.2 4.8 0.00 0.00 0.00 86 1013.2
20260906134712 26 90 1.6 4.8 0.00 0.00 0.00 86 1013.2
20260906134212 26 90 3.2 4.8 0.00 0.00 0.00 87 1013.2
20260906133712 26 135 3.2 4.8 0.00 0.00 0.00 87 1013.2
20260906133212 26 135 1.6 4.8 0.00 0.00 0.00 87 1013.2
20260906132712 26 112 1.6 4.8 0.00 0.00 0.00 88 1013.2
20260906132212 25 112 1.6 3.2 0.00 0.00 0.00 89 1013.3
20260906131712 25 112 1.6 3.2 0.00 0.00 0.00 90 1013.3
20260906131212 25 112 1.6 3.2 0.00 0.00 0.00 90 1013.3
20260906130712 25 0 0.0 0.0 0.00 0.00 0.00 91 1013.3
20260906130212 25 157 1.6 1.6 0.00 0.00 0.00 91 1013.1
20260906125712 24 157 0.0 1.6 0.00 0.00 0.00 91 1013.1
20260906125212 24 0 0.0 0.0 0.00 0.00 0.00 91 1013.0
20260906124712 24 0 0.0 0.0 0.00 0.00 0.00 92 1012.9
20260906124212 24 0 0.0 0.0 0.00 0.00 0.00 92 1012.9
20260906123712 24 0 0.0 0.0 0.00 0.00 0.00 93 1012.8
20260906123212 23 0 0.0 0.0 0.00 0.00 0.00 93 1012.9
20260906122712 23 0 0.0 0.0 0.00 0.00 0.00 93 1012.8
20260906122212 23 0 0.0 0.0 0.00 0.00 0.00 93 1012.8
20260906121712 23 0 0.0 0.0 0.00 0.00 0.00 93 1012.8
20260906121212 23 0 0.0 0.0 0.00 0.00 0.00 93 1012.7
20260906120712 23 0 0.0 0.0 0.00 0.00 0.00 93 1012.6
20260906120212 23 0 0.0 0.0 0.00 0.00 0.00 93 1012.6
20260906115712 23 0 0.0 0.0 0.00 0.00 0.00 92 1012.6
20260906115212 23 180 1.6 1.6 0.00 0.00 0.00 92 1012.6
20260906114712 23 0 0.0 0.0 0.00 0.00 0.00 92 1012.5
20260906114212 23 0 0.0 0.0 0.00 0.00 0.00 92 1012.5
20260906113712 23 0 0.0 0.0 0.00 0.00 0.00 92 1012.5
20260906113212 24 0 0.0 0.0 0.00 0.00 0.00 92 1012.4
20260906112712 24 0 0.0 0.0 0.00 0.00 0.00 92 1012.3
20260906112212 24 0 0.0 0.0 0.00 0.00 0.00 92 1012.3
20260906111712 24 0 0.0 0.0 0.00 0.00 0.00 92 1012.3
20260906111212 24 180 0.0 1.6 0.00 0.00 0.00 92 1012.3
20260906110712 24 180 1.6 3.2 0.00 0.00 0.00 92 1012.2
20260906110212 24 180 1.6 3.2 0.00 0.00 0.00 92 1012.3
20260906105712 24 180 3.2 4.8 0.00 0.00 0.00 92 1012.2
20260906105212 24 157 1.6 3.2 0.00 0.00 0.00 91 1012.1
20260906104712 24 157 1.6 1.6 0.00 0.00 0.00 91 1012.1
20260906104212 24 157 1.6 3.2 0.00 0.00 0.00 91 1012.0
20260906103712 24 157 3.2 4.8 0.00 0.00 0.00 91 1011.9
20260906103212 24 157 3.2 4.8 0.00 0.00 0.00 91 1011.9
20260906102712 24 157 1.6 1.6 0.00 0.00 0.00 91 1011.9
20260906102212 24 157 1.6 1.6 0.00 0.00 0.00 90 1011.8
20260906101712 24 0 0.0 0.0 0.00 0.00 0.00 90 1011.9
20260906101212 24 0 0.0 0.0 0.00 0.00 0.00 90 1012.0
20260906100712 24 0 0.0 0.0 0.00 0.00 0.00 90 1012.0
20260906100212 25 0 0.0 0.0 0.00 0.00 0.00 90 1011.9
20260906095712 25 0 0.0 0.0 0.00 0.00 0.00 89 1011.9
20260906095212 25 0 0.0 0.0 0.00 0.00 0.00 89 1011.8
20260906094712 25 0 0.0 0.0 0.00 0.00 0.00 89 1011.8
20260906094212 25 0 0.0 0.0 0.00 0.00 0.00 89 1011.7
20260906093712 25 0 0.0 0.0 0.00 0.00 0.00 88 1011.7
20260906093212 25 0 0.0 0.0 0.00 0.00 0.00 88 1011.7
20260906092712 25 0 0.0 0.0 0.00 0.00 0.00 88 1011.6
20260906092212 25 0 0.0 0.0 0.00 0.00 0.00 88 1011.6
20260906091712 25 0 0.0 0.0 0.00 0.00 0.00 88 1011.6
20260906091212 25 0 0.0 0.0 0.00 0.00 0.00 88 1011.6
20260906090712 25 0 0.0 0.0 0.00 0.00 0.00 87 1011.6
20260906090212 25 0 0.0 0.0 0.00 0.00 0.00 87 1011.6
20260906085712 25 0 0.0 0.0 0.00 0.00 0.00 87 1011.5
20260906085212 25 0 0.0 0.0 0.00 0.00 0.00 87 1011.4
20260906084712 25 0 0.0 0.0 0.00 0.00 0.00 86 1011.4
20260906084212 26 157 1.6 1.6 0.00 0.00 0.00 86 1011.3
20260906083712 26 157 1.6 1.6 0.00 0.00 0.00 85 1011.4
20260906083212 26 157 1.6 1.6 0.00 0.00 0.00 84 1011.4
20260906082712 26 157 3.2 4.8 0.00 0.00 0.00 84 1011.3
20260906082212 26 157 3.2 4.8 0.00 0.00 0.00 84 1011.3
20260906081712 26 180 3.2 6.4 0.00 0.00 0.00 84 1011.2
20260906081212 26 180 3.2 6.4 0.00 0.00 0.00 84 1011.4
20260906080712 26 180 3.2 6.4 0.00 0.00 0.00 84 1011.5
20260906080212 26 180 1.6 4.8 0.00 0.00 0.00 83 1011.4
20260906075712 26 157 0.0 4.8 0.00 0.00 0.00 83 1011.3
20260906075212 26 180 3.2 6.4 0.00 0.00 0.00 82 1011.3
20260906074712 26 180 1.6 3.2 0.00 0.00 0.00 82 1011.3
20260906074212 26 180 1.6 3.2 0.00 0.00 0.00 82 1011.3
20260906073712 26 180 1.6 4.8 0.00 0.00 0.00 81 1011.2
20260906073212 26 180 3.2 3.2 0.00 0.00 0.00 81 1011.3
20260906072712 26 180 0.0 1.6 0.00 0.00 0.00 81 1011.3
20260906072212 26 0 0.0 0.0 0.00 0.00 0.00 80 1011.3
20260906071712 26 0 0.0 0.0 0.00 0.00 0.00 80 1011.4
20260906071212 26 0 0.0 0.0 0.00 0.00 0.00 80 1011.5
20260906070712 27 0 0.0 0.0 0.00 0.00 0.00 79 1011.6
20260906070212 27 0 0.0 0.0 0.00 0.00 0.00 79 1011.7
20260906065712 27 180 1.6 4.8 0.00 0.00 0.00 79 1011.7
20260906065212 27 180 3.2 4.8 0.00 0.00 0.00 79 1011.8
20260906064712 27 180 4.8 8.0 0.00 0.00 0.00 79 1011.8
20260906064212 27 180 4.8 8.0 0.00 0.00 0.00 79 1011.8
20260906063712 27 180 3.2 4.8 0.00 0.00 0.00 79 1011.7
20260906063212 27 180 3.2 8.0 0.00 0.00 0.00 80 1011.6
20260906062712 27 180 3.2 8.0 0.00 0.00 0.00 80 1011.6
20260906062212 27 157 3.2 6.4 0.00 0.00 0.00 80 1011.6
20260906061712 27 135 3.2 6.4 0.00 0.00 0.00 79 1011.7
20260906061212 27 157 4.8 9.7 0.00 0.00 0.00 77 1011.5
20260906060712 27 180 6.4 11.3 0.00 0.00 0.00 77 1011.6
20260906060212 27 180 6.4 9.7 0.00 0.00 0.00 77 1011.7
20260906055712 27 157 1.6 6.4 0.00 0.00 0.00 77 1011.7
20260906055212 27 180 1.6 4.8 0.00 0.00 0.00 77 1011.7
20260906054712 27 157 1.6 6.4 0.00 0.00 0.00 78 1011.9
20260906054212 27 157 3.2 6.4 0.00 0.00 0.00 78 1011.9
20260906053712 27 180 3.2 4.8 0.00 0.00 0.00 78 1011.9
20260906053212 27 157 1.6 1.6 0.00 0.00 0.00 77 1011.8
20260906052712 27 157 3.2 4.8 0.00 0.00 0.00 77 1011.8
20260906052212 27 157 1.6 3.2 0.00 0.00 0.00 77 1011.7
20260906051712 27 0 0.0 0.0 0.00 0.00 0.00 76 1011.6
20260906051212 27 0 0.0 0.0 0.00 0.00 0.00 76 1011.6
20260906050712 27 0 0.0 0.0 0.00 0.00 0.00 76 1011.6
20260906050212 28 0 0.0 0.0 0.00 0.00 0.00 75 1011.5
20260906045712 28 0 0.0 0.0 0.00 0.00 0.00 75 1011.6
20260906045212 28 0 0.0 0.0 0.00 0.00 0.00 74 1011.5
20260906044712 28 0 0.0 0.0 0.00 0.00 0.00 74 1011.6
20260906044212 28 180 3.2 8.0 0.00 0.00 0.00 74 1011.7
20260906043712 28 157 4.8 9.7 0.00 0.00 0.00 73 1011.8
20260906043212 28 157 4.8 8.0 0.00 0.00 0.00 73 1011.8
20260906042712 28 157 3.2 4.8 0.00 0.00 0.00 72 1011.7
20260906042212 28 157 4.8 6.4 0.00 0.00 0.00 72 1011.7
20260906041712 28 157 4.8 6.4 0.00 0.00 0.00 72 1011.8
20260906041212 28 180 3.2 6.4 0.00 0.00 0.00 72 1011.6
20260906040712 28 157 1.6 4.8 0.00 0.00 0.00 71 1011.6
20260906040212 28 180 4.8 9.7 0.00 0.00 0.00 71 1011.7
20260906035712 28 180 4.8 9.7 0.00 0.00 0.00 71 1011.7
20260906035212 28 180 3.2 8.0 0.00 0.00 0.00 70 1011.8
20260906034712 28 180 0.0 3.2 0.00 0.00 0.00 70 1011.7
20260906034212 29 180 3.2 6.4 0.00 0.00 0.00 69 1011.6
20260906033712 29 157 1.6 3.2 0.00 0.00 0.00 69 1011.6
20260906033212 29 157 1.6 6.4 0.00 0.00 0.00 68 1011.6
20260906032712 29 180 3.2 6.4 0.00 0.00 0.00 68 1011.6
20260906032212 29 180 3.2 6.4 0.00 0.00 0.00 67 1011.6
20260906031712 29 157 4.8 4.8 0.00 0.00 0.00 67 1011.7
20260906031212 30 180 3.2 8.0 0.00 0.00 0.00 67 1011.7
20260906030712 30 180 4.8 11.3 0.00 0.00 0.00 66 1011.7
20260906030212 30 180 6.4 12.9 0.00 0.00 0.00 65 1011.7
20260906025712 30 180 8.0 12.9 0.00 0.00 0.00 65 1011.7
20260906025212 30 157 6.4 12.9 0.00 0.00 0.00 64 1011.7
20260906024712 30 157 6.4 14.5 0.00 0.00 0.00 64 1011.7
20260906024212 30 180 6.4 14.5 0.00 0.00 0.00 63 1011.5
20260906023712 30 180 6.4 12.9 0.00 0.00 0.00 63 1011.4
20260906023212 30 157 8.0 14.5 0.00 0.00 0.00 63 1011.3
20260906022712 30 180 8.0 16.1 0.00 0.00 0.00 62 1011.3
20260906022212 30 180 9.7 16.1 0.00 0.00 0.00 62 1011.2
20260906021712 30 180 6.4 14.5 0.00 0.00 0.00 62 1011.0
20260906021212 30 180 4.8 12.9 0.00 0.00 0.00 62 1010.9
20260906020712 31 180 8.0 16.1 0.00 0.00 0.00 61 1010.8
20260906020212 31 180 11.3 20.9 0.00 0.00 0.00 61 1010.9
20260906015712 31 180 9.7 17.7 0.00 0.00 0.00 61 1010.8
20260906015212 31 180 8.0 16.1 0.00 0.00 0.00 60 1010.7
20260906014712 31 180 9.7 16.1 0.00 0.00 0.00 60 1010.7
20260906014212 31 157 9.7 17.7 0.00 0.00 0.00 59 1010.7
20260906013712 31 157 9.7 14.5 0.00 0.00 0.00 59 1010.6
20260906013212 31 157 11.3 16.1 0.00 0.00 0.00 59 1010.6
20260906012712 31 157 11.3 17.7 0.00 0.00 0.00 58 1010.5
20260906012212 31 157 11.3 20.9 0.00 0.00 0.00 58 1010.5
20260906011712 32 157 14.5 24.1 0.00 0.00 0.00 57 1010.3
20260906011212 32 157 12.9 20.9 0.00 0.00 0.00 56 1010.3
20260906010712 32 157 12.9 25.7 0.00 0.00 0.00 56 1010.2
20260906010212 32 157 16.1 25.7 0.00 0.00 0.00 55 1010.1
20260906005712 32 157 16.1 27.4 0.00 0.00 0.00 55 1010.0
20260906005212 33 157 17.7 29.0 0.00 0.00 0.00 54 1010.0
20260906004712 34 157 12.9 29.0 0.00 0.00 0.00 50 1009.9
20260906004212 35 157 3.2 4.8 0.00 0.00 0.00 45 1009.7
20260906003712 35 180 3.2 6.4 0.00 0.00 0.00 44 1009.6
20260906003212 35 180 4.8 6.4 0.00 0.00 0.00 43 1009.7
20260906002712 35 157 4.8 6.4 0.00 0.00 0.00 43 1009.7
20260906002212 35 157 6.4 9.7 0.00 0.00 0.00 43 1009.7
20260906001712 35 157 6.4 11.3 0.00 0.00 0.00 43 1009.7
20260906001212 35 157 8.0 11.3 0.00 0.00 0.00 43 1009.8
20260906000712 35 180 8.0 12.9 0.00 0.00 0.00 42 1009.7
20260906000212 36 157 4.8 9.7 0.00 0.00 0.00 43 1009.7
20260905235712 36 135 8.0 12.9 0.00 0.00 0.00 42 1009.7
20260905235212 36 135 8.0 11.3 0.00 0.00 0.00 42 1009.6
20260905234712 36 157 6.4 9.7 0.00 0.00 0.00 42 1009.5
20260905234212 36 157 8.0 12.9 0.00 0.00 0.00 43 1009.4
20260905233712 36 157 8.0 12.9 0.00 0.00 0.00 42 1009.4
20260905233212 36 135 4.8 12.9 0.00 0.00 0.00 42 1009.5
20260905232712 36 157 4.8 8.0 0.00 0.00 0.00 42 1009.5
20260905232212 36 157 1.6 4.8 0.00 0.00 0.00 42 1009.5
20260905231712 36 157 3.2 8.0 0.00 0.00 0.00 42 1009.5
20260905231212 36 180 6.4 11.3 0.00 0.00 0.00 42 1009.6
20260905230712 36 135 6.4 11.3 0.00 0.00 0.00 42 1009.6
20260905230212 37 157 8.0 12.9 0.00 0.00 0.00 41 1009.6
20260905225712 37 180 3.2 4.8 0.00 0.00 0.00 40 1009.5
20260905225212 37 0 0.0 0.0 0.00 0.00 0.00 41 1009.5
20260905224712 36 180 1.6 9.7 0.00 0.00 0.00 42 1009.4